Location: Pedholt
(56.0260°N, 10.2097°E)
Time: 06:21:00
(UTC+00:00)

Vanguard 3 - Pass Details

Date: 05 August 2021
Orbit: 510 x 3260 km, 33.4° (Epoch: 26 September)

Event Time Altitude Azimuth Distance (km) Brightness Sun altitude
Rises 21:52:53 0° 267° (W) 6,712 12.1 -14.7°
Reaches altitude 10° 21:59:28 10° 251° (WSW) 6,002 11.6 -15.1°
Maximum altitude 22:09:55 18° 218° (SW) 5,540 11.1 -15.6°
Enters shadow 22:18:54 12° 189° (S) 5,892 11.0 -15.9°
